Showing default

SMDC ONE 2.3, 39474

Orbit data source: Space-Track

SMDC ONE 2.3, 39474 is a payload satellite owned by SMDC (US) in LEO that was launched on Fri, 06 Dec 2013 UTC via an ATLAS V 501 launch vehicle from the Air Force Western Test Range (AFWTR). Payload-class satellites include a variety of spacecraft equipped with specific instruments for various scientific and technological missions. These include communications satellites like Starlink; space stations such as the ISS; scientific satellites like the Hubble; Earth observation satellites from companies like Planet Labs, Umbra, and HawkEye 360; GPS; miniature CubeSats for education and research; and military/defense satellites.

Loading next visibility...
Identifier
39474, 2013-072N
Orbit
LEO
Country
Flag of USUS
Related business
Manufacturer
Duocomm Miltec
Mission
Operational Defense Communications
Bus & Motor
CUBESAT 3U, Unknown motor
Mass
4 kg wet, 4 kg dry
Launch date (UTC)
2013-12-06 (13 years ago)
Launch vehicle
ATLAS V 501
Launch site
Air Force Western Test Range (AFWTR)
Object type
Payload
Rocket body
Debris
Shape & HBR
Box, 0.1 m
Radar Cross Section
0.075 m², Medium (>0.1 m² and < 1m²)

Expand to show TLE details & history
Last TLE update: 5 days ago

TLE from 5 days ago
0 SMDC ONE 2.3
1 39474U 13072N   26155.29291799  .00129581  00000-0  13100-2 0  9990
2 39474 120.4489  84.4555 0066574  39.5071 321.0851 15.61712584115569
Epoch: 2026-06-04T07:01Z
TLE epoch observation values (Epoch: 2026-06-04T07:01:48.114Z)
Latitude
-0.00002°
Longitude
86.26577°
Altitude
349.386 km
Speed
7.72 km/s
True Right ascension
05h 37m 49s
True Declination
0° 00' 00"
Sunlit
Object was in daylight at epoch
Visualization orbit readout
Latitude
Unknown
Longitude
Unknown
Altitude
Unknown
Speed
Unknown
Apparent Right ascension
Unknown
Apparent Declination
Unknown
Sunlit
N/A
Visualization observer readout
Local Sidereal Time
11:27:56
Azimuth
Unknown
Elevation
Unknown
Doppler factor
Unknown
Orbital elements
Apogee altitude
426.971 km
Perigee altitude
336.962 km
Semi-major axis
6,760.103 km
Eccentricity
0.00666
Inclination
120.4489°
RAAN
84.4555°
Arg. of periapsis
39.5071°
True anomaly
320.60277°
Mean anomaly
321.0851°
Eccentric anomaly
320.84425°
Mean motion
3.90493 °/min
Orbital period
92.19 mins
BSTAR
0.00131
Loading maneuver chart data...
Computing Atmospheric mass density...
Loading historical data...
Loading historical data...
Loading historical data...
Loading historical data...
Loading historical data...
Loading historical data...
Loading historical data...

Documentation

Showing up to 5 results
|